period_start,C,m1,H,J0,J1,J2,J3,J4,J5,JA,JB,JC,JD,JJ,JK,JN,#
2017-05-03 00:03:18,0.03,1.52,0.00,23.33,26.77,30.35,14.60,49.04,1025.43,2031.99,2872.49,2703.03,3074.04,599.66,600.20,40.25,0000 0000 0000 0000 000000
2017-05-03 00:08:18,0.01,1.52,0.00,23.64,26.76,30.32,14.63,48.94,1025.49,2031.99,2871.97,2702.85,3073.75,599.66,599.69,40.30,0000 0000 0000 0000 000000
2017-05-03 00:13:20,0.05,1.53,0.00,23.49,26.77,30.15,14.62,48.97,1025.61,2031.99,2871.19,2702.09,3073.03,599.99,600.30,40.35,0000 0000 0000 0000 000000
2017-05-03 00:18:21,0.02,1.53,0.00,23.80,26.77,30.20,14.61,48.94,1025.64,2031.99,2870.61,2701.93,3072.60,600.26,599.99,40.40,0000 0000 0000 0000 000000
2017-05-03 00:23:22,0.04,1.53,0.00,23.91,26.79,30.25,14.49,48.96,1025.69,2031.98,2869.96,2701.14,3072.02,599.57,599.05,40.45,0000 0000 0000 0000 000000
2017-05-03 00:28:23,0.03,1.53,0.00,23.89,26.80,30.31,14.61,49.06,1025.73,2031.98,2869.12,2700.97,3071.51,599.98,599.54,40.50,0000 0000 0000 0000 000000
2017-05-03 00:33:25,0.05,1.53,0.00,23.95,26.81,30.32,14.60,48.97,1025.75,2031.98,2868.52,2700.19,3071.01,600.07,599.54,40.55,0000 0000 0000 0000 000000
2017-05-03 00:38:26,0.01,1.53,0.00,24.03,26.82,30.32,14.51,49.10,1025.83,2031.96,2867.99,2699.98,3070.41,599.79,599.12,40.60,0000 0000 0000 0000 000000
2017-05-03 00:43:27,0.04,1.54,0.00,24.12,26.82,30.36,14.61,49.10,1025.88,2031.91,2867.18,2699.31,3070.00,600.00,599.27,40.65,0000 0000 0000 0000 000000
2017-05-03 00:48:28,0.03,1.54,0.00,24.21,26.82,30.38,14.54,49.04,1025.89,2031.86,2866.69,2698.99,3069.32,600.17,599.10,40.70,0000 0000 0000 0000 000000
2017-05-03 00:53:30,0.01,1.54,0.00,24.24,26.84,30.39,14.59,49.03,1025.89,2031.70,2866.02,2698.47,3068.97,599.80,598.83,40.75,0000 0000 0000 0000 000000
2017-05-03 00:58:31,0.05,1.54,0.00,24.23,26.84,30.37,14.56,49.06,1025.90,2031.78,2865.41,2698.01,3068.38,599.95,598.94,40.80,0000 0000 0000 0000 000000
2017-05-03 01:03:32,0.02,1.54,0.00,24.26,26.83,30.37,14.57,49.00,1025.91,2031.85,2864.80,2697.89,3068.00,600.00,598.92,40.85,0000 0000 0000 0000 000000
2017-05-03 01:08:33,0.05,1.55,0.00,24.27,26.82,30.37,14.52,48.99,1025.91,2031.84,2864.03,2697.09,3067.34,600.09,598.88,40.90,0000 0000 0000 0000 000000
2017-05-03 01:13:34,0.01,1.55,0.00,24.27,26.82,30.35,14.56,48.77,1025.98,2031.74,2863.55,2696.98,3067.00,600.38,599.37,40.95,0000 0000 0000 0000 000000
2017-05-03 01:18:35,0.03,1.55,0.00,24.22,26.82,30.33,14.57,48.82,1026.09,2031.75,2863.02,2696.69,3066.68,599.95,599.08,41.00,0000 0000 0000 0000 000000
2017-05-03 01:23:37,0.05,1.55,0.00,24.25,26.82,30.32,14.55,48.80,1026.19,2031.80,2862.39,2696.04,3066.03,600.16,599.20,41.05,0000 0000 0000 0000 000000
2017-05-03 01:28:38,0.02,1.55,0.00,24.25,26.81,30.32,14.49,48.76,1026.23,2031.72,2861.75,2695.92,3065.70,599.55,598.81,41.10,0000 0000 0000 0000 000000
2017-05-03 01:33:39,0.03,1.55,0.00,24.00,26.80,30.34,14.56,48.93,1026.24,2031.62,2861.02,2695.15,3065.03,600.12,599.87,41.15,0000 0000 0000 0000 000000
2017-05-03 01:38:40,0.04,1.55,0.00,23.66,26.80,30.34,14.68,49.02,1026.35,2031.68,2860.26,2694.99,3064.69,600.08,600.45,41.20,0000 0000 0000 0000 000000
2017-05-03 01:43:42,0.05,1.56,0.00,23.56,26.77,30.35,14.58,48.88,1026.38,2031.80,2859.79,2694.47,3064.03,600.16,600.73,41.26,0000 0000 0000 0000 000000
2017-05-03 01:48:43,0.01,1.56,0.00,23.51,26.76,30.41,14.62,49.17,1026.38,2031.78,2859.02,2694.01,3063.82,600.07,600.90,41.31,0000 0000 0000 0000 000000
2017-05-03 01:53:44,0.02,1.56,0.00,23.69,26.75,30.32,14.74,49.03,1026.38,2031.64,2858.38,2693.82,3063.07,600.55,600.95,41.36,0000 0000 0000 0000 000000
2017-05-03 01:58:46,0.05,1.56,0.00,23.64,26.75,30.09,14.62,48.89,1026.38,2031.84,2857.96,2693.11,3062.94,600.16,600.57,41.41,0000 0000 0000 0000 000000
2017-05-03 02:03:47,0.03,1.56,0.00,23.79,26.76,30.12,14.58,48.86,1026.39,2031.89,2857.14,2692.98,3062.16,600.22,600.43,41.46,0000 0000 0000 0000 000000
2017-05-03 02:08:48,0.02,1.56,0.00,23.99,26.77,30.19,14.50,48.83,1026.40,2031.53,2856.41,2692.26,3061.67,599.85,599.52,41.51,0000 0000 0000 0000 000000
2017-05-03 02:13:49,0.01,1.57,0.00,24.09,26.78,30.23,14.58,48.83,1026.42,2031.42,2855.82,2691.99,3061.03,600.20,599.78,41.56,0000 0000 0000 0000 000000
2017-05-03 02:18:51,0.05,1.57,0.00,24.24,26.80,30.26,14.61,48.75,1026.49,2031.39,2855.08,2691.42,3060.75,600.31,599.56,41.61,0000 0000 0000 0000 000000
2017-05-03 02:23:52,0.02,1.57,0.00,24.28,26.81,30.29,14.63,48.83,1026.63,2031.21,2854.51,2691.00,3060.04,600.09,599.41,41.66,0000 0000 0000 0000 000000
2017-05-03 02:28:54,0.02,1.57,0.00,24.27,26.82,30.30,14.53,48.90,1026.80,2031.12,2853.87,2690.56,3059.61,599.73,599.17,41.71,0000 0000 0000 0000 000000
2017-05-03 02:33:55,0.02,1.57,0.00,24.31,26.82,30.30,14.51,48.79,1026.84,2031.06,2853.04,2690.01,3059.02,599.69,599.17,41.76,0000 0000 0000 0000 000000
2017-05-03 02:38:56,0.05,1.57,0.00,24.31,26.82,30.32,14.57,48.80,1026.87,2031.04,2852.20,2689.57,3058.40,599.60,599.07,41.81,0000 0000 0000 0000 000000
2017-05-03 02:43:58,0.02,1.58,0.00,24.35,26.84,30.33,14.52,48.83,1026.87,2031.05,2851.70,2689.02,3058.00,599.98,599.24,41.86,0000 0000 0000 0000 000000
2017-05-03 02:48:59,0.02,1.58,0.00,24.31,26.85,30.27,14.61,48.87,1026.87,2031.03,2851.01,2688.89,3057.38,599.60,599.03,41.91,0000 0000 0000 0000 000000
2017-05-03 02:54:01,0.05,1.58,0.00,24.30,26.85,30.27,14.50,48.78,1026.87,2031.04,2850.22,2688.09,3057.00,599.71,599.09,41.96,0000 0000 0000 0000 000000
2017-05-03 02:59:02,0.02,1.58,0.00,24.35,26.85,30.26,14.47,48.94,1026.87,2031.03,2849.72,2687.97,3056.40,599.81,599.07,42.01,0000 0000 0000 0000 000000
2017-05-03 03:04:03,0.04,1.58,0.00,24.38,26.85,30.26,14.61,48.90,1026.87,2031.03,2848.97,2687.29,3055.99,600.01,599.31,42.07,0000 0000 0000 0000 000000
2017-05-03 03:09:05,0.03,1.58,0.00,24.34,26.85,30.28,14.54,48.74,1026.87,2031.03,2848.14,2687.00,3055.45,599.93,599.27,42.12,0000 0000 0000 0000 000000
2017-05-03 03:14:06,0.03,1.59,0.00,24.39,26.85,30.26,14.51,48.77,1026.90,2031.01,2847.61,2686.63,3054.99,600.05,599.25,42.17,0000 0000 0000 0000 000000
2017-05-03 03:19:08,0.04,1.59,0.00,24.42,26.85,30.28,14.46,48.82,1026.90,2031.03,2846.93,2686.02,3054.34,600.06,599.38,42.22,0000 0000 0000 0000 000000
2017-05-03 03:24:09,0.01,1.59,0.00,24.40,26.85,30.24,14.48,48.82,1026.90,2031.03,2846.10,2685.96,3053.99,599.92,599.15,42.27,0000 0000 0000 0000 000000
2017-05-03 03:29:10,0.05,1.59,0.00,24.41,26.85,30.22,14.67,48.74,1026.90,2031.04,2845.56,2685.28,3053.48,600.26,599.43,42.32,0000 0000 0000 0000 000000
2017-05-03 03:34:12,0.02,1.59,0.00,24.39,26.85,30.23,14.52,48.73,1026.94,2031.03,2844.90,2684.98,3053.00,600.22,599.47,42.37,0000 0000 0000 0000 000000
2017-05-03 03:39:13,0.05,1.60,0.00,24.43,26.85,30.25,14.48,48.76,1027.00,2031.04,2844.09,2684.31,3052.32,599.76,598.84,42.42,0000 0000 0000 0000 000000
2017-05-03 03:44:14,0.02,1.60,0.00,24.40,26.85,30.22,14.53,48.76,1027.15,2031.02,2843.29,2683.99,3051.98,600.21,599.59,42.47,0000 0000 0000 0000 000000
2017-05-03 03:49:16,0.04,1.60,0.00,24.42,26.85,30.22,14.52,48.77,1027.19,2031.03,2842.83,2683.61,3051.29,599.72,599.16,42.52,0000 0000 0000 0000 000000
2017-05-03 03:54:17,0.02,1.60,0.00,24.41,26.85,30.19,14.42,48.63,1027.11,2031.04,2842.06,2683.03,3050.98,599.62,598.93,42.57,0000 0000 0000 0000 000000
2017-05-03 03:59:18,0.04,1.60,0.00,24.42,26.85,30.20,14.45,48.78,1027.23,2031.03,2841.38,2682.74,3050.31,599.75,599.22,42.62,0000 0000 0000 0000 000000
2017-05-03 04:04:20,0.02,1.61,0.00,24.42,26.85,30.20,14.57,48.76,1027.31,2031.03,2840.80,2682.05,3049.97,600.00,599.38,42.67,0000 0000 0000 0000 000000
2017-05-03 04:09:21,0.03,1.61,0.00,24.42,26.85,30.18,14.48,48.75,1027.35,2031.03,2840.04,2681.94,3049.28,599.92,599.43,42.72,0000 0000 0000 0000 000000
2017-05-03 04:14:23,0.04,1.61,0.00,24.37,26.85,30.21,14.59,48.88,1027.36,2031.02,2839.33,2681.17,3048.95,600.02,599.68,42.77,0000 0000 0000 0000 000000
2017-05-03 04:19:24,0.03,1.61,0.00,24.40,26.85,30.20,14.50,48.81,1027.36,2031.01,2838.69,2680.99,3048.19,599.88,599.38,42.82,0000 0000 0000 0000 000000
2017-05-03 04:24:25,0.04,1.61,0.00,24.41,26.85,30.18,14.50,48.75,1027.36,2031.01,2837.97,2680.36,3047.98,599.96,599.31,42.87,0000 0000 0000 0000 000000
2017-05-03 04:29:27,0.04,1.61,0.00,24.38,26.86,30.18,14.62,48.87,1027.36,2031.03,2837.11,2679.98,3047.19,599.93,599.51,42.92,0000 0000 0000 0000 000000
2017-05-03 04:34:28,0.04,1.62,0.00,24.35,26.87,30.19,14.52,48.83,1027.36,2031.01,2836.38,2679.34,3046.79,600.04,599.76,42.98,0000 0000 0000 0000 000000
2017-05-03 04:39:29,0.02,1.62,0.00,24.39,26.87,30.19,14.60,48.83,1027.36,2031.01,2835.88,2679.00,3046.07,600.20,599.69,43.03,0000 0000 0000 0000 000000
2017-05-03 04:44:31,0.04,1.62,0.00,24.41,26.87,30.24,14.61,48.84,1027.36,2031.03,2835.05,2678.56,3045.81,599.88,599.30,43.08,0000 0000 0000 0000 000000
2017-05-03 04:49:32,0.03,1.62,0.00,24.44,26.87,30.22,14.58,48.77,1027.37,2031.01,2834.54,2678.01,3045.05,600.13,599.43,43.13,0000 0000 0000 0000 000000
2017-05-03 04:54:34,0.01,1.62,0.00,24.45,26.87,30.20,14.50,48.73,1027.36,2031.01,2833.96,2677.91,3044.89,600.14,599.54,43.18,0000 0000 0000 0000 000000
2017-05-03 04:59:35,0.06,1.63,0.00,24.47,26.87,30.17,14.50,48.77,1027.36,2031.01,2833.17,2677.19,3044.13,599.88,599.33,43.23,0000 0000 0000 0000 000000
2017-05-03 05:04:36,0.01,1.63,0.00,24.53,26.87,30.18,14.53,48.69,1027.36,2031.00,2832.79,2677.00,3043.98,600.05,599.24,43.28,0000 0000 0000 0000 000000
2017-05-03 05:09:38,0.05,1.63,0.00,24.41,26.87,30.15,14.55,48.64,1027.36,2031.01,2832.04,2676.57,3043.28,600.06,599.55,43.33,0000 0000 0000 0000 000000
2017-05-03 05:14:39,0.03,1.63,0.00,24.43,26.88,30.17,14.50,48.76,1027.36,2031.01,2831.26,2676.01,3042.90,600.02,599.45,43.38,0000 0000 0000 0000 000000
2017-05-03 05:19:41,0.05,1.63,0.00,24.46,26.89,30.17,14.64,48.68,1027.37,2031.00,2830.50,2675.59,3042.11,600.17,599.61,43.43,0000 0000 0000 0000 000000
2017-05-03 05:24:43,0.01,1.63,0.00,24.50,26.90,30.18,14.49,48.73,1027.37,2031.00,2829.99,2675.02,3041.92,600.09,599.32,43.48,0000 0000 0000 0000 000000
2017-05-03 05:29:44,0.03,1.64,0.00,24.43,26.90,30.19,14.58,48.82,1027.37,2031.00,2829.35,2674.94,3041.16,600.00,599.38,43.53,0000 0000 0000 0000 000000
2017-05-03 05:34:46,0.03,1.64,0.00,24.38,26.90,30.20,14.56,48.75,1027.37,2031.00,2828.85,2674.17,3040.97,600.32,599.89,43.58,0000 0000 0000 0000 000000
2017-05-03 05:39:48,0.03,1.64,0.00,24.46,26.90,30.22,14.48,48.73,1027.45,2031.00,2828.07,2673.99,3040.31,599.68,599.09,43.63,0000 0000 0000 0000 000000
2017-05-03 05:44:49,0.04,1.64,0.00,24.45,26.90,30.19,14.57,48.88,1027.57,2031.00,2827.55,2673.50,3039.99,600.24,599.75,43.68,0000 0000 0000 0000 000000
2017-05-03 05:49:51,0.01,1.64,0.00,24.40,26.92,30.21,14.57,48.74,1027.64,2031.00,2827.00,2673.01,3039.77,599.97,599.69,43.73,0000 0000 0000 0000 000000
2017-05-03 05:54:52,0.03,1.64,0.00,24.40,26.92,30.19,14.54,48.77,1027.64,2031.00,2826.34,2672.91,3039.04,600.14,599.74,43.78,0000 0000 0000 0000 000000
2017-05-03 05:59:54,0.04,1.65,0.00,24.41,26.92,30.20,14.56,48.68,1027.60,2031.00,2825.91,2672.14,3038.54,600.51,600.22,43.84,0000 0000 0000 0000 000000
2017-05-03 06:04:55,0.02,1.65,0.00,24.46,26.92,30.23,14.53,48.88,1027.71,2031.00,2825.11,2672.00,3038.02,599.55,599.23,43.89,0000 0000 0000 0000 000000
2017-05-03 06:09:56,0.02,1.65,0.00,24.43,26.92,30.21,14.54,48.76,1027.71,2031.00,2824.74,2671.72,3037.84,599.73,599.31,43.94,0000 0000 0000 0000 000000
2017-05-03 06:14:57,0.04,1.65,0.00,24.45,26.94,30.22,14.55,48.79,1027.62,2031.00,2824.06,2671.05,3037.09,600.00,599.55,43.99,0000 0000 0000 0000 000000
2017-05-03 06:19:59,0.02,1.65,0.00,24.44,26.95,30.24,14.56,48.76,1027.71,2031.00,2823.48,2670.94,3036.91,600.19,599.79,44.04,0000 0000 0000 0000 000000
2017-05-03 06:25:00,0.04,1.66,0.00,24.38,26.95,30.28,14.53,48.83,1027.78,2031.00,2822.99,2670.21,3036.15,600.27,600.12,44.09,0000 0000 0000 0000 000000
2017-05-03 06:30:01,0.00,1.66,0.00,24.38,26.95,30.25,14.55,48.92,1027.80,2030.99,2822.84,2670.01,3036.00,599.99,599.80,44.14,0000 0000 0000 0000 000000
2017-05-03 06:35:02,0.01,1.66,0.00,24.41,26.95,30.22,14.55,48.91,1027.81,2030.99,2822.07,2669.99,3035.85,599.67,599.38,44.19,0000 0000 0000 0000 000000
2017-05-03 06:40:03,0.05,1.66,0.00,24.33,26.96,30.21,14.51,48.84,1027.82,2030.98,2821.61,2669.34,3035.09,599.97,599.82,44.24,0000 0000 0000 0000 000000
2017-05-03 06:45:05,0.01,1.66,0.00,24.40,26.97,30.23,14.60,48.83,1027.83,2030.99,2821.01,2669.00,3034.94,600.14,599.84,44.29,0000 0000 0000 0000 000000
2017-05-03 06:50:06,0.02,1.66,0.00,24.36,26.97,30.22,14.60,48.97,1027.84,2030.97,2820.64,2668.97,3034.29,600.08,600.01,44.34,0000 0000 0000 0000 000000
2017-05-03 06:55:07,0.03,1.66,0.00,24.37,26.97,30.21,14.54,48.93,1027.84,2030.97,2820.03,2668.31,3034.00,599.92,599.78,44.39,0000 0000 0000 0000 000000
2017-05-03 07:00:09,0.02,1.66,0.00,24.34,26.97,30.21,14.59,48.85,1027.84,2030.92,2819.52,2668.01,3033.68,600.10,599.98,44.44,0000 0000 0000 0000 000000
2017-05-03 07:05:10,0.01,1.67,0.00,24.35,26.97,30.21,14.58,48.84,1027.84,2030.96,2819.02,2667.96,3033.11,600.18,599.98,44.49,0000 0000 0000 0000 000000
2017-05-03 07:10:11,0.03,1.67,0.00,24.40,26.97,30.24,14.56,48.86,1027.83,2030.97,2818.60,2667.33,3033.00,600.23,599.98,44.54,0000 0000 0000 0000 000000
2017-05-03 07:15:12,0.02,1.67,0.00,24.44,26.97,30.24,14.51,48.92,1027.83,2030.97,2818.02,2667.02,3032.57,599.75,599.64,44.59,0000 0000 0000 0000 000000
2017-05-03 07:20:14,0.02,1.67,0.00,24.46,26.97,30.22,14.57,48.88,1027.85,2030.94,2817.55,2666.97,3032.02,599.94,599.63,44.64,0000 0000 0000 0000 000000
2017-05-03 07:25:15,0.03,1.67,0.00,24.38,26.97,30.21,14.56,48.94,1027.85,2030.94,2816.96,2666.34,3031.94,599.91,599.73,44.69,0000 0000 0000 0000 000000
2017-05-03 07:30:16,0.04,1.67,0.00,24.35,26.96,30.21,14.54,48.87,1027.85,2030.95,2816.11,2666.01,3031.18,599.90,599.82,44.75,0000 0000 0000 0000 000000
2017-05-03 07:35:18,0.01,1.67,0.00,24.35,26.97,30.20,14.53,48.84,1027.86,2030.94,2815.99,2665.89,3030.98,600.01,600.00,44.80,0000 0000 0000 0000 000000
2017-05-03 07:40:19,0.05,1.68,0.00,24.39,26.96,30.20,14.53,48.85,1027.91,2030.96,2815.36,2665.26,3030.54,600.17,600.07,44.85,0000 0000 0000 0000 000000
2017-05-03 07:45:20,0.01,1.68,0.00,24.40,26.96,30.20,14.54,48.78,1028.06,2030.95,2814.94,2665.00,3030.01,600.16,600.04,44.90,0000 0000 0000 0000 000000
2017-05-03 07:50:21,0.02,1.68,0.00,24.43,26.96,30.20,14.50,48.83,1028.16,2030.97,2814.23,2664.92,3029.89,599.83,599.70,44.95,0000 0000 0000 0000 000000
2017-05-03 07:55:23,0.04,1.68,0.00,24.37,26.95,30.21,14.51,48.92,1028.23,2030.97,2813.95,2664.24,3029.16,599.97,600.05,45.00,0000 0000 0000 0000 000000
2017-05-03 08:00:24,0.01,1.68,0.00,24.36,26.95,30.18,14.54,48.82,1028.26,2030.97,2813.18,2664.00,3028.99,600.01,600.11,45.05,0000 0000 0000 0000 000000
2017-05-03 08:05:25,0.02,1.68,0.00,24.34,26.95,30.19,14.57,48.77,1028.32,2030.96,2812.84,2663.83,3028.54,600.10,600.19,45.10,0000 0000 0000 0000 000000
2017-05-03 08:10:27,0.04,1.69,0.00,24.41,26.95,30.20,14.61,48.82,1028.33,2030.96,2812.05,2663.06,3028.01,600.01,600.02,45.15,0000 0000 0000 0000 000000
2017-05-03 08:15:28,0.02,1.69,0.00,24.30,26.95,30.19,14.59,48.87,1028.33,2030.96,2811.54,2662.99,3027.75,599.90,600.25,45.20,0000 0000 0000 0000 000000
2017-05-03 08:20:29,0.03,1.69,0.00,24.40,26.95,30.20,14.55,48.86,1028.33,2030.97,2811.01,2662.71,3027.12,599.65,599.72,45.25,0000 0000 0000 0000 000000
2017-05-03 08:25:30,0.03,1.69,0.00,24.41,26.95,30.18,14.63,48.76,1028.33,2030.97,2810.40,2662.05,3026.96,599.97,599.97,45.30,0000 0000 0000 0000 000000
2017-05-03 08:30:31,0.01,1.69,0.00,24.36,26.95,30.18,14.60,48.77,1028.34,2030.97,2809.99,2661.98,3026.34,600.06,600.14,45.35,0000 0000 0000 0000 000000
2017-05-03 08:35:32,0.04,1.69,0.00,24.39,26.95,30.19,14.56,48.73,1028.34,2030.97,2809.33,2661.64,3026.01,599.99,600.05,45.40,0000 0000 0000 0000 000000
2017-05-03 08:40:34,0.02,1.69,0.00,24.38,26.95,30.18,14.58,48.79,1028.34,2030.99,2808.94,2661.04,3025.82,600.20,600.33,45.45,0000 0000 0000 0000 000000
2017-05-03 08:45:35,0.03,1.70,0.00,24.29,26.95,30.17,14.48,48.60,1028.34,2030.98,2808.14,2660.99,3025.08,599.98,600.29,45.50,0000 0000 0000 0000 000000
2017-05-03 08:50:36,0.02,1.70,0.00,24.36,26.94,30.18,14.46,48.72,1028.34,2030.98,2807.92,2660.61,3024.93,599.83,600.00,45.55,0000 0000 0000 0000 000000
2017-05-03 08:55:38,0.06,1.70,0.00,24.39,26.93,30.18,14.57,48.79,1028.35,2030.99,2806.82,2659.88,3024.10,599.92,599.98,45.60,0000 0000 0000 0000 000000
2017-05-03 09:00:39,1.15,1.73,0.00,24.34,26.93,30.16,14.50,48.70,1028.35,2030.98,2793.10,2651.04,3014.47,599.94,600.12,45.65,0000 0000 0000 0000 000000
2017-05-03 09:05:40,0.18,1.77,0.00,24.31,26.92,30.16,14.56,48.76,1028.35,2030.98,2782.47,2644.22,3007.09,599.81,600.07,45.71,0000 0000 0000 0000 000000
2017-05-03 09:10:42,0.01,1.77,0.00,24.37,26.92,30.16,14.51,48.67,1028.36,2030.98,2781.91,2643.99,3006.85,599.96,600.09,45.76,0000 0000 0000 0000 000000
2017-05-03 09:15:43,0.05,1.77,0.00,24.32,26.92,30.16,14.61,48.77,1028.35,2030.98,2781.11,2643.58,3006.07,600.28,600.29,45.81,0000 0000 0000 0000 000000
2017-05-03 09:20:45,0.02,1.77,0.00,24.34,26.92,30.15,14.60,48.77,1028.36,2030.97,2780.65,2643.02,3005.94,600.26,600.42,45.86,0000 0000 0000 0000 000000
2017-05-03 09:25:46,0.02,1.77,0.00,24.36,26.92,30.15,14.53,48.77,1028.41,2030.99,2779.99,2642.95,3005.25,599.92,600.04,45.91,0000 0000 0000 0000 000000
2017-05-03 09:30:47,0.05,1.78,0.00,24.38,26.92,30.16,14.58,48.89,1028.51,2030.99,2779.21,2642.27,3004.95,600.21,600.44,45.96,0000 0000 0000 0000 000000
2017-05-03 09:35:49,0.04,1.78,0.00,24.38,26.92,30.15,14.60,48.76,1028.61,2030.99,2778.37,2641.96,3004.14,599.65,600.17,46.01,0000 0000 0000 0000 000000
2017-05-03 09:40:50,0.02,1.78,0.00,24.35,26.91,30.15,14.52,48.81,1028.73,2030.99,2777.99,2641.43,3003.99,599.94,600.34,46.06,0000 0000 0000 0000 000000
2017-05-03 09:45:51,0.03,1.78,0.00,24.34,26.90,30.14,14.54,48.79,1028.79,2030.99,2777.29,2641.01,3003.42,599.67,600.20,46.11,0000 0000 0000 0000 000000
2017-05-03 09:50:52,0.01,1.78,0.00,24.35,26.90,30.14,14.54,48.78,1028.78,2030.99,2776.91,2640.87,3003.00,599.73,600.18,46.16,0000 0000 0000 0000 000000
2017-05-03 09:55:54,0.06,1.78,0.00,24.42,26.90,30.15,14.51,48.61,1028.78,2030.98,2776.09,2640.13,3002.51,599.77,600.12,46.21,0000 0000 0000 0000 000000
2017-05-03 10:00:55,0.00,1.79,0.00,24.33,26.90,30.14,14.56,48.74,1028.81,2030.99,2775.85,2640.00,3002.02,600.06,600.56,46.26,0000 0000 0000 0000 000000
2017-05-03 10:05:57,0.03,1.79,0.00,24.33,26.90,30.14,14.58,48.77,1028.82,2030.99,2775.06,2639.73,3001.87,599.81,600.32,46.31,0000 0000 0000 0000 000000
2017-05-03 10:10:58,0.04,1.79,0.00,24.36,26.89,30.14,14.57,48.85,1028.82,2030.99,2774.57,2639.04,3001.07,599.91,600.23,46.36,0000 0000 0000 0000 000000
2017-05-03 10:16:00,0.00,1.79,0.00,24.37,26.88,30.14,14.51,48.68,1028.82,2030.99,2774.01,2639.00,3000.99,600.16,600.57,46.41,0000 0000 0000 0000 000000
2017-05-03 10:21:01,0.02,1.79,0.00,24.38,26.87,30.15,14.58,48.83,1028.82,2030.99,2773.62,2638.86,3000.63,600.06,600.46,46.46,0000 0000 0000 0000 000000
2017-05-03 10:26:02,0.04,1.79,0.00,24.37,26.87,30.15,14.56,48.68,1028.82,2030.99,2773.02,2638.14,3000.04,600.05,600.46,46.51,0000 0000 0000 0000 000000
2017-05-03 10:31:04,0.00,1.79,0.00,24.37,26.87,30.14,14.55,48.72,1028.82,2030.99,2772.82,2638.00,2999.99,600.03,600.35,46.57,0000 0000 0000 0000 000000
2017-05-03 10:36:05,0.03,1.79,0.00,24.36,26.87,30.13,14.59,48.81,1028.82,2030.99,2772.06,2637.95,2999.53,600.11,600.51,46.62,0000 0000 0000 0000 000000
2017-05-03 10:41:07,0.03,1.80,0.00,24.34,26.86,30.13,14.63,48.77,1028.82,2030.99,2771.77,2637.26,2999.01,600.23,600.76,46.67,0000 0000 0000 0000 000000
2017-05-03 10:46:08,0.02,1.80,0.00,24.34,26.85,30.12,14.62,48.74,1028.83,2030.99,2771.05,2637.00,2998.80,599.91,600.38,46.72,0000 0000 0000 0000 000000
2017-05-03 10:51:10,0.01,1.80,0.00,24.36,26.85,30.13,14.51,48.77,1028.83,2030.99,2770.92,2636.97,2998.07,599.81,600.23,46.77,0000 0000 0000 0000 000000
2017-05-03 10:56:12,0.03,1.80,0.00,24.43,26.85,30.13,14.57,48.78,1028.83,2030.99,2770.18,2636.55,2998.00,600.02,600.20,46.82,0000 0000 0000 0000 000000
2017-05-03 11:01:13,0.01,1.80,0.00,24.40,26.85,30.13,14.58,48.76,1028.83,2030.99,2769.93,2636.02,2997.82,600.16,600.58,46.87,0000 0000 0000 0000 000000
2017-05-03 11:06:14,0.03,1.80,0.00,24.34,26.83,30.12,14.52,48.74,1028.85,2030.99,2769.13,2635.98,2997.08,599.93,600.46,46.92,0000 0000 0000 0000 000000
2017-05-03 11:11:16,0.05,1.80,0.00,24.35,26.82,30.13,14.57,48.65,1028.84,2030.99,2768.70,2635.34,2996.82,599.92,600.32,46.97,0000 0000 0000 0000 000000
2017-05-03 11:16:17,0.02,1.81,0.00,24.33,26.82,30.12,14.58,48.77,1028.86,2030.99,2768.03,2635.00,2996.10,599.90,600.45,47.02,0000 0000 0000 0000 000000
2017-05-03 11:21:18,0.01,1.81,0.00,24.36,26.82,30.13,14.58,48.71,1028.86,2030.99,2767.81,2634.85,2996.00,599.84,600.31,47.07,0000 0000 0000 0000 000000
2017-05-03 11:26:20,0.05,1.81,0.00,24.34,26.81,30.13,14.60,48.64,1028.85,2030.99,2767.07,2634.15,2995.66,599.87,600.46,47.12,0000 0000 0000 0000 000000
2017-05-03 11:31:21,0.01,1.81,0.00,24.33,26.80,30.13,14.67,48.58,1028.84,2030.99,2766.81,2634.00,2995.07,600.59,601.10,47.17,0000 0000 0000 0000 000000
2017-05-03 11:36:22,0.01,1.81,0.00,24.35,26.80,30.11,14.62,48.62,1028.85,2030.99,2766.08,2633.96,2995.00,600.19,600.64,47.22,0000 0000 0000 0000 000000
2017-05-03 11:41:23,0.02,1.81,0.00,24.39,26.80,30.11,14.58,48.61,1028.84,2030.99,2765.97,2633.52,2994.84,600.21,600.54,47.27,0000 0000 0000 0000 000000
2017-05-03 11:46:24,0.04,1.82,0.00,24.39,26.79,30.11,14.56,48.66,1028.84,2030.99,2765.21,2633.04,2994.09,599.94,600.13,47.32,0000 0000 0000 0000 000000
2017-05-03 11:51:25,0.00,1.82,0.00,24.38,26.77,30.10,14.60,48.63,1028.84,2031.00,2765.00,2633.00,2993.99,600.14,600.48,47.37,0000 0000 0000 0000 000000
2017-05-03 11:56:27,0.01,1.82,0.00,24.35,26.77,30.10,14.64,48.70,1028.88,2031.01,2764.76,2632.94,2993.89,600.28,600.62,47.42,0000 0000 0000 0000 000000
2017-05-03 12:01:28,0.05,1.82,0.00,24.35,26.77,30.10,14.60,48.71,1029.06,2031.01,2764.03,2632.21,2993.13,600.04,600.84,47.48,0000 0000 0000 0000 000000
2017-05-03 12:06:30,0.02,1.82,0.00,24.36,26.76,30.10,14.57,48.56,1029.26,2031.02,2763.34,2632.00,2992.99,600.09,600.83,47.53,0000 0000 0000 0000 000000
2017-05-03 12:11:31,0.02,1.82,0.00,24.34,26.75,30.10,14.62,48.66,1029.29,2031.04,2762.99,2631.90,2992.53,600.14,600.88,47.58,0000 0000 0000 0000 000000
2017-05-03 12:16:32,0.04,1.82,0.00,24.33,26.75,30.09,14.58,48.66,1029.29,2031.02,2762.38,2631.17,2992.02,600.02,600.79,47.63,0000 0000 0000 0000 000000
2017-05-03 12:21:33,0.00,1.82,0.00,24.32,26.75,30.08,14.62,48.73,1029.27,2031.02,2762.01,2631.00,2992.00,600.11,601.00,47.68,0000 0000 0000 0000 000000
2017-05-03 12:26:34,0.01,1.82,0.00,24.34,26.74,30.09,14.56,48.60,1029.30,2031.02,2761.95,2631.00,2991.76,599.63,600.51,47.73,0000 0000 0000 0000 000000
2017-05-03 12:31:36,0.03,1.83,0.00,24.32,26.72,30.09,14.56,48.63,1029.30,2031.05,2761.19,2630.85,2991.11,600.02,600.80,47.78,0000 0000 0000 0000 000000
2017-05-03 12:36:37,0.02,1.83,0.00,24.33,26.72,30.09,14.59,48.69,1029.31,2031.07,2760.99,2630.19,2991.00,599.83,600.68,47.83,0000 0000 0000 0000 000000
2017-05-03 12:41:38,0.02,1.83,0.00,24.37,26.72,30.08,14.62,48.66,1029.31,2031.05,2760.25,2630.00,2990.84,599.98,600.51,47.88,0000 0000 0000 0000 000000
2017-05-03 12:46:39,0.01,1.83,0.00,24.33,26.71,30.08,14.62,48.67,1029.31,2031.03,2759.99,2629.96,2990.10,600.22,600.95,47.93,0000 0000 0000 0000 000000
2017-05-03 12:51:41,0.05,1.83,0.00,24.31,26.70,30.08,14.55,48.58,1029.30,2031.08,2759.34,2629.34,2989.99,600.06,600.83,47.98,0000 0000 0000 0000 000000
2017-05-03 12:56:42,0.02,1.83,0.00,24.34,26.70,30.06,14.58,48.67,1029.31,2031.19,2758.96,2629.02,2989.75,599.91,600.80,48.03,0000 0000 0000 0000 000000